マクノート彗星

254P/McNaught (2010)

English version
Home page
Updated on February 10, 2013

---------------------------------------------------------------------

・ プロフィール

符号 254P/2010 T1
発見日 2010年10月4日
発見光度 18.8等
発見者 R. H. McNaught (Siding Spring Survey)

・ 写真集

・ 軌道要素

Epoch 2010 Oct. 11.0 TT = JDT 2455480.5
T 2010 Oct. 26.63540 TT                                 MPC
q   3.2151103            (2000.0)            P               Q
n   0.09721207     Peri.  220.77429     +0.90889127     +0.06803371
a   4.6844211      Node   130.08034     -0.06665723     +0.99761871
e   0.3136590      Incl.   32.52980     -0.41167155     -0.01132761
P  10.1
From 99 observations 1980 Oct. 5-2012 Jan. 27, mean residual 0".5.

・ 光度変化

        m1 = 10.5 + 5 logΔ + 10.0 log r(t - 200)

---------------------------------------------------------------------

軌道要素はM.P.E.C. 2012-W54に掲載されたものです。
光度グラフはComet for Windowsで作成したものです。

---------------------------------------------------------------------

Copyright(C) Seiichi Yoshida (comet@aerith.net). All rights reserved.